| time (UTC) | temp F | wind direction | speed MPH | gust MPH | rain 1hr in | rain 24hr in | rain mn in | humidity % | barometer mb |
| 20260507104533 | 40 | 355 | 0.0 | 0.0 | 0.00 | 0.15 | 0.00 | 93 | 1003.6 |
| 20260507103033 | 40 | 31 | 0.0 | 0.0 | 0.00 | 0.15 | 0.00 | 93 | 1003.6 |
| 20260507101532 | 40 | 2 | 0.0 | 0.0 | 0.00 | 0.15 | 0.00 | 93 | 1003.7 |
| 20260507100034 | 40 | 335 | 0.0 | 0.0 | 0.00 | 0.15 | 0.00 | 93 | 1003.6 |
| 20260507094531 | 40 | 355 | 0.0 | 0.0 | 0.00 | 0.15 | 0.00 | 93 | 1003.7 |
| 20260507093030 | 39 | 348 | 0.0 | 0.0 | 0.00 | 0.15 | 0.00 | 93 | 1003.7 |
| 20260507091535 | 40 | 356 | 0.0 | 0.0 | 0.00 | 0.15 | 0.00 | 93 | 1003.7 |
| 20260507090036 | 40 | 353 | 0.0 | 0.0 | 0.00 | 0.15 | 0.00 | 93 | 1003.7 |
| 20260507084529 | 40 | 341 | 0.0 | 0.0 | 0.00 | 0.15 | 0.00 | 93 | 1003.7 |
| 20260507083032 | 40 | 332 | 0.0 | 2.0 | 0.00 | 0.15 | 0.00 | 93 | 1003.8 |
| 20260507081526 | 40 | 337 | 0.0 | 0.0 | 0.00 | 0.15 | 0.00 | 93 | 1003.6 |
| 20260507080025 | 40 | 336 | 0.0 | 0.0 | 0.00 | 0.15 | 0.00 | 93 | 1003.8 |
| 20260507074524 | 40 | 3 | 1.0 | 20.0 | 0.00 | 0.15 | 0.00 | 93 | 1003.9 |
| 20260507073022 | 40 | 9 | 14.0 | 24.0 | 0.00 | 0.15 | 0.00 | 93 | 1004.0 |
| 20260507071520 | 40 | 12 | 13.0 | 25.0 | 0.00 | 0.15 | 0.00 | 93 | 1003.9 |
| 20260507070021 | 40 | 342 | 9.0 | 17.0 | 0.00 | 0.15 | 0.00 | 93 | 1004.1 |
| 20260507064513 | 40 | 328 | 7.0 | 18.0 | 0.00 | 0.15 | 0.00 | 93 | 1004.3 |
| 20260507063011 | 40 | 20 | 1.0 | 15.0 | 0.00 | 0.15 | 0.00 | 93 | 1004.3 |
| 20260507061509 | 40 | 360 | 0.0 | 13.0 | 0.00 | 0.15 | 0.00 | 93 | 1004.3 |
| 20260507060007 | 41 | 19 | 0.0 | 0.0 | 0.00 | 0.15 | 0.00 | 93 | 1004.4 |
| 20260507054513 | 41 | 26 | 0.0 | 0.0 | 0.00 | 0.15 | 0.00 | 92 | 1004.5 |
| 20260507053004 | 41 | 31 | 0.0 | 2.0 | 0.00 | 0.15 | 0.00 | 92 | 1004.6 |
| 20260507051502 | 41 | 4 | 0.0 | 0.0 | 0.00 | 0.15 | 0.00 | 93 | 1004.7 |
| 20260507050100 | 41 | 322 | 0.0 | 0.0 | 0.00 | 0.15 | 0.00 | 92 | 1004.6 |
| 20260507044658 | 42 | 331 | 0.0 | 0.0 | 0.00 | 0.15 | 0.00 | 93 | 1004.7 |
| 20260507043055 | 42 | 351 | 0.0 | 0.0 | 0.00 | 0.15 | 0.00 | 93 | 1004.9 |
| 20260507041553 | 42 | 345 | 0.0 | 2.0 | 0.00 | 0.15 | 0.00 | 92 | 1005.1 |
| 20260507040054 | 42 | 337 | 0.0 | 0.0 | 0.00 | 0.15 | 0.00 | 93 | 1005.4 |
| 20260507034554 | 42 | 2 | 0.0 | 0.0 | 0.00 | 0.15 | 0.15 | 93 | 1005.5 |
| 20260507033051 | 42 | 341 | 0.0 | 0.0 | 0.00 | 0.15 | 0.15 | 92 | 1005.5 |
| 20260507031547 | 42 | 339 | 0.0 | 10.0 | 0.00 | 0.15 | 0.15 | 92 | 1005.7 |
| 20260507030046 | 43 | 349 | 0.0 | 0.0 | 0.00 | 0.15 | 0.15 | 93 | 1005.7 |
| 20260507024548 | 43 | 2 | 0.0 | 7.0 | 0.00 | 0.15 | 0.15 | 92 | 1005.6 |
| 20260507023049 | 43 | 358 | 0.0 | 0.0 | 0.00 | 0.15 | 0.15 | 92 | 1005.8 |
| 20260507021546 | 43 | 339 | 0.0 | 0.0 | 0.00 | 0.15 | 0.15 | 92 | 1005.9 |
| 20260507020104 | 43 | 27 | 0.0 | 0.0 | 0.00 | 0.15 | 0.15 | 92 | 1005.7 |
| 20260507014541 | 43 | 2 | 0.0 | 9.0 | 0.00 | 0.15 | 0.15 | 92 | 1005.9 |
| 20260507013050 | 44 | 2 | 0.0 | 0.0 | 0.00 | 0.15 | 0.15 | 92 | 1006.2 |
| 20260507011540 | 44 | 339 | 0.0 | 0.0 | 0.00 | 0.15 | 0.15 | 92 | 1006.4 |
| 20260507010039 | 44 | 333 | 0.0 | 0.0 | 0.00 | 0.15 | 0.15 | 91 | 1006.4 |
| 20260507004551 | 44 | 229 | 0.0 | 0.0 | 0.00 | 0.15 | 0.15 | 91 | 1006.5 |
| 20260507003044 | 44 | 229 | 0.0 | 0.0 | 0.00 | 0.15 | 0.15 | 91 | 1006.5 |
| 20260507001544 | 45 | 177 | 0.0 | 0.0 | 0.00 | 0.15 | 0.15 | 90 | 1006.3 |
| 20260507000038 | 45 | 177 | 0.0 | 0.0 | 0.00 | 0.15 | 0.15 | 90 | 1006.3 |
| 20260506234541 | 45 | 177 | 0.0 | 0.0 | 0.00 | 0.15 | 0.15 | 90 | 1006.4 |
| 20260506233039 | 45 | 177 | 0.0 | 0.0 | 0.00 | 0.15 | 0.15 | 89 | 1006.5 |
| 20260506231537 | 45 | 177 | 0.0 | 0.0 | 0.00 | 0.15 | 0.15 | 90 | 1006.4 |
| 20260506230045 | 45 | 177 | 0.0 | 0.0 | 0.00 | 0.15 | 0.15 | 90 | 1006.3 |
| 20260506224535 | 45 | 177 | 0.0 | 0.0 | 0.00 | 0.15 | 0.15 | 90 | 1006.3 |
| 20260506223042 | 45 | 177 | 0.0 | 0.0 | 0.00 | 0.15 | 0.15 | 90 | 1006.4 |
| 20260506221534 | 45 | 177 | 0.0 | 0.0 | 0.01 | 0.15 | 0.15 | 90 | 1006.5 |
| 20260506220034 | 45 | 177 | 0.0 | 0.0 | 0.01 | 0.15 | 0.15 | 90 | 1006.7 |
| 20260506214540 | 45 | 177 | 0.0 | 0.0 | 0.01 | 0.23 | 0.15 | 90 | 1006.7 |
| 20260506213037 | 45 | 174 | 0.0 | 0.0 | 0.01 | 0.23 | 0.15 | 90 | 1006.8 |
| 20260506211532 | 45 | 156 | 0.0 | 0.0 | 0.00 | 0.22 | 0.14 | 90 | 1006.6 |
| 20260506210033 | 45 | 160 | 0.0 | 12.0 | 0.00 | 0.22 | 0.14 | 90 | 1006.7 |
| 20260506204532 | 45 | 169 | 0.0 | 0.0 | 0.00 | 0.22 | 0.14 | 91 | 1006.8 |
| 20260506203033 | 44 | 169 | 0.0 | 1.0 | 0.00 | 0.22 | 0.14 | 92 | 1006.8 |
| 20260506201530 | 44 | 172 | 0.0 | 0.0 | 0.00 | 0.22 | 0.14 | 93 | 1007.0 |
| 20260506200031 | 44 | 161 | 1.0 | 12.0 | 0.00 | 0.22 | 0.14 | 93 | 1007.1 |
| 20260506194529 | 44 | 160 | 1.0 | 17.0 | 0.00 | 0.22 | 0.14 | 92 | 1007.1 |
| 20260506193028 | 45 | 251 | 5.0 | 21.0 | 0.01 | 0.22 | 0.14 | 93 | 1007.1 |
| 20260506191526 | 45 | 195 | 16.0 | 21.0 | 0.02 | 0.22 | 0.14 | 93 | 1007.3 |
| 20260506190026 | 44 | 200 | 15.0 | 23.0 | 0.02 | 0.22 | 0.14 | 93 | 1007.3 |
| 20260506184540 | 44 | 181 | 14.0 | 21.0 | 0.03 | 0.22 | 0.14 | 93 | 1007.4 |
| 20260506183036 | 44 | 196 | 16.0 | 23.0 | 0.03 | 0.21 | 0.13 | 93 | 1007.6 |
| 20260506181530 | 44 | 251 | 13.0 | 23.0 | 0.04 | 0.20 | 0.12 | 93 | 1007.8 |
| 20260506180027 | 44 | 251 | 12.0 | 18.0 | 0.05 | 0.20 | 0.12 | 93 | 1007.9 |
| 20260506174524 | 44 | 251 | 15.0 | 21.0 | 0.05 | 0.21 | 0.11 | 93 | 1007.9 |
| 20260506173019 | 44 | 205 | 18.0 | 27.0 | 0.04 | 0.20 | 0.10 | 93 | 1007.9 |
| 20260506171518 | 44 | 211 | 21.0 | 31.0 | 0.04 | 0.18 | 0.08 | 92 | 1008.0 |
| 20260506170016 | 44 | 205 | 24.0 | 29.0 | 0.04 | 0.17 | 0.07 | 92 | 1007.9 |
| 20260506164514 | 44 | 193 | 18.0 | 25.0 | 0.03 | 0.16 | 0.06 | 91 | 1008.0 |
| 20260506163013 | 44 | 197 | 21.0 | 27.0 | 0.03 | 0.16 | 0.06 | 91 | 1008.2 |
| 20260506161514 | 44 | 193 | 23.0 | 28.0 | 0.01 | 0.14 | 0.04 | 90 | 1008.4 |
| 20260506160013 | 45 | 196 | 25.0 | 29.0 | 0.00 | 0.13 | 0.03 | 89 | 1008.6 |
| 20260506154509 | 45 | 195 | 23.0 | 28.0 | 0.00 | 0.13 | 0.03 | 87 | 1008.6 |
| 20260506153012 | 46 | 185 | 22.0 | 30.0 | 0.00 | 0.13 | 0.03 | 85 | 1008.6 |
| 20260506151503 | 47 | 159 | 17.0 | 23.0 | 0.00 | 0.13 | 0.03 | 78 | 1008.4 |
| 20260506150003 | 48 | 137 | 0.0 | 0.0 | 0.00 | 0.13 | 0.03 | 77 | 1008.6 |
| 20260506144503 | 47 | 202 | 0.0 | 1.0 | 0.00 | 0.13 | 0.03 | 79 | 1008.6 |
| 20260506143102 | 48 | 145 | 0.0 | 1.0 | 0.00 | 0.13 | 0.03 | 79 | 1008.4 |
| 20260506143002 | 48 | 145 | 0.0 | 1.0 | 0.00 | 0.13 | 0.03 | 79 | 1008.4 |
| 20260506141559 | 47 | 319 | 0.0 | 15.0 | 0.00 | 0.13 | 0.03 | 82 | 1008.4 |
| 20260506140106 | 47 | 152 | 9.0 | 21.0 | 0.01 | 0.13 | 0.03 | 81 | 1008.3 |
| 20260506134557 | 47 | 156 | 11.0 | 26.0 | 0.01 | 0.13 | 0.03 | 80 | 1008.1 |
| 20260506133055 | 46 | 189 | 0.0 | 0.0 | 0.01 | 0.13 | 0.03 | 83 | 1008.2 |
| 20260506131555 | 46 | 168 | 0.0 | 1.0 | 0.02 | 0.13 | 0.03 | 84 | 1008.4 |
| 20260506130054 | 47 | 337 | 0.0 | 0.0 | 0.02 | 0.12 | 0.02 | 86 | 1008.1 |
| 20260506124551 | 47 | 329 | 0.0 | 0.0 | 0.02 | 0.12 | 0.02 | 85 | 1008.0 |
| 20260506123050 | 47 | 333 | 0.0 | 0.0 | 0.02 | 0.12 | 0.02 | 86 | 1008.2 |
| 20260506121550 | 47 | 9 | 0.0 | 0.0 | 0.01 | 0.11 | 0.01 | 86 | 1008.4 |
| 20260506120048 | 47 | 318 | 0.0 | 0.0 | 0.00 | 0.10 | 0.00 | 87 | 1008.4 |
| 20260506114545 | 47 | 314 | 0.0 | 0.0 | 0.00 | 0.10 | 0.00 | 86 | 1007.7 |
| 20260506113044 | 47 | 26 | 0.0 | 0.0 | 0.00 | 0.10 | 0.00 | 84 | 1007.5 |
| 20260506111539 | 48 | 19 | 0.0 | 0.0 | 0.00 | 0.10 | 0.00 | 84 | 1007.0 |
| 20260506110038 | 48 | 23 | 0.0 | 1.0 | 0.00 | 0.10 | 0.00 | 84 | 1006.8 |